[[{"header":{"parameterUnit":"m.s-1","parameterCategory":1,"la1":30.2991,"la2":30.254,"lo1":-89.0895,"lo2":-89.0444,"dy":0.0017,"dx":0.0017,"nx":28,"ny":28,"refTime":"2024-03-13T03:00:00:Z","depth":0,"parameterNumber":2,"parameterNumberName":"U-component_of_WINDS"},"data":[0,0,0,0,0,0,0,0,0,0,0,0,0,0,0,0,0,0,0,0,0,0,0,0,0,0,0,0,0,0,0,0,0,0,0,0,0,0,0,0,0,0,0,0,0,0,0,0,0,0,0,0,0,0,0,0,0,0,0.7566,0.7567,0,0.7649,0.765,0.7651,0.7675,0.7674,0.7674,0.7673,0.7756,0.7758,0.7761,0,0,0,0,0,0,0,0,0,0,0,0,0,0.7427,0.743,0.7566,0.7567,0.7568,0.7649,0.765,0.7651,0.7675,0.7674,0.7674,0.7673,0.7755,0.7758,0.7761,0,0,0,0,0,0,0,0,0,0,0,0,0,0.7496,0.743,0.7566,0.759,0.7593,0.7648,0.765,0.7651,0.7675,0.7674,0.7674,0.7673,0.7754,0.7758,0.7762,0.7799,0,0,0.7774,0.7775,0,0,0,0,0,0,0,0,0.7492,0.7501,0.7586,0.7589,0.7592,0.7651,0.7631,0.7701,0.7675,0.7644,0.7673,0.7673,0.7721,0.7728,0.7745,0.7802,0.7806,0.7774,0.7776,0.7778,0.7779,0,0,0,0,0,0,0,0.7487,0.7498,0.7599,0.7587,0.7591,0.7596,0.7605,0.7644,0.7685,0.7646,0.7648,0.7658,0.7723,0.7741,0.7747,0.7807,0.7774,0.7777,0.778,0.7781,0.7898,0.7899,0,0,0,0,0,0,0.7479,0.7494,0.7596,0.7601,0.754,0.7599,0.7609,0.7633,0.7685,0.7692,0.7658,0.7659,0.7735,0.7742,0.775,0.7796,0.7778,0.7782,0.7784,0.7897,0.7898,0.7899,0,0,0,0,0,0,0.7476,0.7488,0.7593,0.7548,0.7562,0.7602,0.7628,0.7634,0.7652,0.7694,0.7701,0.7669,0.7734,0.7744,0.7786,0.7799,0.7783,0.7787,0.7896,0.7897,0.7899,0.7888,0,0,0,0,0,0,0.7472,0.7487,0.7502,0.7548,0.7564,0.7629,0.7629,0.7637,0.7659,0.7661,0.7706,0.7713,0.7735,0.778,0.779,0.7804,0.779,0.7895,0.7897,0.7898,0.7887,0.7888,0.7889,0,0,0,0,0,0.7467,0.7495,0.7502,0.7515,0.7584,0.7629,0.7638,0.7663,0.766,0.7675,0.7702,0.7711,0.7796,0.7784,0.7795,0.7811,0.7895,0.7896,0.7898,0.7887,0.7888,0.7889,0,0,0,0,0,0,0.7449,0.7502,0.751,0.7555,0.7588,0.7633,0.7653,0.7664,0.7698,0.7698,0.7726,0.7736,0.7776,0.7798,0.7784,0.7848,0.7845,0.7849,0.7833,0.7835,0.7836,0.7829,0.7793,0,0,0,0,0,0.745,0.7483,0.7528,0.7563,0.7579,0.7613,0.7634,0.765,0.7684,0.7698,0.7728,0.776,0.7794,0.7816,0.7849,0.789,0.79,0.7906,0.7907,0.7908,0.7911,0.7933,0.7936,0.7905,0.7905,0.7905,0,0,0.7453,0.7486,0.7505,0.756,0.7587,0.7619,0.7624,0.7659,0.7683,0.7703,0.7744,0.7767,0.7805,0.7847,0.7866,0.7866,0.7922,0.791,0.7911,0.7913,0.7935,0.7938,0.7941,0.7906,0.7906,0.7905,0,0,0.7475,0.7504,0.7536,0.7563,0.7604,0.7626,0.7634,0.7678,0.7694,0.7736,0.7751,0.778,0.7838,0.7864,0.7885,0.7915,0.7925,0.7925,0.7931,0.7952,0.7955,0.7957,0.7967,0.797,0.7928,0.7928,0.7928,0,0.7473,0.7524,0.755,0.7584,0.7607,0.7627,0.7659,0.7684,0.7733,0.7748,0.7747,0.7819,0.7847,0.7894,0.7901,0.7918,0.7926,0.792,0.7952,0.7955,0.7958,0.7967,0.7971,0.7928,0.7928,0.7928,0.7928,0,0.7519,0.7553,0.7574,0.7622,0.7647,0.768,0.771,0.7732,0.7746,0.7769,0.781,0.7843,0.7883,0.7896,0.791,0.7945,0.7943,0.7947,0.7944,0.796,0.7969,0.7973,0.7927,0.7928,0.7928,0.7928,0,0,0.7532,0.7593,0.76,0.7622,0.7668,0.7695,0.7728,0.7767,0.7785,0.7818,0.7846,0.7894,0.7897,0.7921,0.7938,0.7957,0.7977,0.7958,0.796,0.796,0.8016,0.8013,0.8017,0.7984,0.7985,0.7986,0.8013,0,0.7558,0.7619,0.7643,0.7692,0.7723,0.7742,0.7771,0.7802,0.7823,0.7852,0.7876,0.7909,0.7912,0.7926,0.7945,0.7971,0.7989,0.7969,0.8009,0.801,0.7998,0.8022,0.8018,0.8042,0.8017,0.8018,0.8018,0,0.7598,0.7632,0.7683,0.7725,0.7739,0.7764,0.7802,0.783,0.7865,0.7879,0.7905,0.792,0.7954,0.795,0.7996,0.7982,0.8,0.8015,0.8016,0.802,0.8015,0.8026,0.8051,0.8054,0.8024,0.8024,0.8023,0,0.7601,0.7659,0.7697,0.7715,0.7765,0.7782,0.7803,0.7837,0.7859,0.7892,0.7906,0.7942,0.7961,0.7988,0.8013,0.8008,0.8057,0.8054,0.8068,0.8068,0.8078,0.8076,0.8105,0.809,0.809,0.809,0.809,0,0.7628,0.7658,0.7699,0.7722,0.7756,0.7784,0.7817,0.7839,0.787,0.7897,0.7916,0.794,0.7972,0.8001,0.802,0.8055,0.8064,0.8075,0.808,0.8073,0.8072,0.8085,0.8083,0.8091,0.8091,0.8091,0.809,0,0.7636,0.7665,0.7708,0.7751,0.7763,0.7786,0.7823,0.7846,0.7868,0.7902,0.7911,0.7946,0.7981,0.8008,0.8053,0.8066,0.8102,0.8108,0.8091,0.8093,0.8105,0.8103,0.8142,0.8148,0.813,0.813,0.813,0,0.7651,0.7675,0.7721,0.7741,0.7762,0.7794,0.7817,0.7844,0.7866,0.7907,0.7925,0.7961,0.7991,0.8045,0.8074,0.8108,0.8114,0.8126,0.8119,0.8112,0.8113,0.8111,0.8113,0.8126,0.8126,0.8126,0.8126,0,0.7674,0.7687,0.7719,0.7756,0.7782,0.7812,0.7842,0.7857,0.789,0.7914,0.795,0.7973,0.8019,0.8054,0.8091,0.8112,0.8124,0.8128,0.8133,0.8126,0.8114,0.812,0.8092,0.8127,0.8127,0.8127,0.8127,0.8127,0.7686,0.7708,0.7743,0.7778,0.7804,0.7831,0.7855,0.788,0.791,0.795,0.7965,0.8001,0.8034,0.8085,0.8107,0.8135,0.8136,0.8143,0.8145,0.8146,0.8145,0.811,0.8142,0.8142,0.8142,0.8142,0.8142,0,0.7709,0.7733,0.7765,0.7807,0.7833,0.7843,0.7877,0.7898,0.793,0.7961,0.799,0.803,0.8064,0.8096,0.8131,0.8147,0.8153,0.8155,0.8154,0.8159,0.8142,0.8134,0.815,0.815,0.815,0.815,0.815,0.815,0.7724,0.7761,0.7778,0.7828,0.7851,0.7887,0.7906,0.7931,0.7955,0.8,0.8028,0.8048,0.8079,0.8116,0.8147,0.8155,0.8167,0.8167,0.8177,0.8161,0.816,0.8159,0.8151,0.817,0.817,0.8191,0.8191,0.8191]},{"header":{"parameterUnit":"m.s-1","parameterCategory":1,"la1":30.2991,"la2":30.254,"lo1":-89.0895,"lo2":-89.0444,"dy":0.0017,"dx":0.0017,"nx":28,"ny":28,"refTime":"2024-03-13T03:00:00:Z","depth":0,"parameterNumber":3,"parameterNumberName":"V-component_of_WINDS"},"data":[0,0,0,0,0,0,0,0,0,0,0,0,0,0,0,0,0,0,0,0,0,0,0,0,0,0,0,0,0,0,0,0,0,0,0,0,0,0,0,0,0,0,0,0,0,0,0,0,0,0,0,0,0,0,0,0,0,0,2.6451,2.6452,0,2.6523,2.6524,2.6524,2.6494,2.6493,2.6491,2.6489,2.6559,2.6563,2.6566,0,0,0,0,0,0,0,0,0,0,0,0,0,2.6284,2.6287,2.6451,2.6452,2.6453,2.6523,2.6524,2.6525,2.6495,2.6493,2.6491,2.6489,2.6558,2.6562,2.6567,0,0,0,0,0,0,0,0,0,0,0,0,0,2.6356,2.6288,2.6451,2.6446,2.6447,2.6523,2.6524,2.6525,2.6495,2.6493,2.649,2.6488,2.6557,2.6562,2.6567,2.665,0,0,2.6583,2.6585,0,0,0,0,0,0,0,0,2.6352,2.6362,2.6446,2.6447,2.6447,2.6497,2.649,2.6567,2.6496,2.6477,2.6489,2.6486,2.6541,2.6547,2.6566,2.6654,2.6657,2.6583,2.6587,2.6589,2.659,0,0,0,0,0,0,0,2.6347,2.6359,2.6479,2.6447,2.6448,2.6439,2.6447,2.6505,2.6522,2.6478,2.6476,2.6485,2.654,2.6561,2.6567,2.6658,2.6583,2.6588,2.6591,2.6593,2.6815,2.6818,0,0,0,0,0,0,2.6342,2.6355,2.6477,2.6482,2.6392,2.6444,2.6453,2.6484,2.6521,2.6525,2.6487,2.6484,2.6553,2.6561,2.657,2.6668,2.6589,2.6594,2.6597,2.6812,2.6816,2.6819,0,0,0,0,0,0,2.6339,2.6354,2.6474,2.6418,2.6432,2.645,2.6485,2.6487,2.6507,2.6528,2.6531,2.6506,2.6552,2.6562,2.663,2.667,2.6596,2.6601,2.6809,2.6813,2.6817,2.6867,0,0,0,0,0,0,2.6334,2.6353,2.6386,2.6419,2.6436,2.6535,2.6488,2.649,2.6517,2.6512,2.6546,2.6549,2.6551,2.6623,2.6636,2.6676,2.6605,2.6806,2.6811,2.6816,2.6862,2.6873,2.6882,0,0,0,0,0,2.6328,2.6397,2.6387,2.6402,2.6478,2.6538,2.6547,2.6548,2.652,2.6552,2.6566,2.6548,2.6664,2.663,2.6644,2.6687,2.6803,2.6809,2.6816,2.6858,2.6871,2.6882,0,0,0,0,0,0,2.6367,2.6401,2.6391,2.6472,2.6503,2.6533,2.6574,2.6562,2.66,2.6594,2.6593,2.6601,2.6671,2.6686,2.6647,2.6768,2.6729,2.6738,2.6756,2.6769,2.6778,2.6773,2.6609,0,0,0,0,0,2.6385,2.6432,2.6459,2.6528,2.6544,2.6556,2.6582,2.6581,2.6611,2.6624,2.6642,2.6671,2.6714,2.6742,2.6783,2.6864,2.687,2.69,2.691,2.6918,2.6926,2.6968,2.6982,2.6839,2.6839,2.6839,0,0,2.6423,2.6447,2.6477,2.6536,2.6559,2.6607,2.6567,2.6619,2.6654,2.6631,2.6696,2.6711,2.6743,2.6818,2.6851,2.6832,2.6967,2.6926,2.6932,2.6936,2.6976,2.699,2.7002,2.6844,2.6843,2.6842,0,0,2.6515,2.6539,2.6599,2.6623,2.6658,2.6666,2.668,2.6712,2.6721,2.6786,2.677,2.681,2.6884,2.6908,2.6929,2.7029,2.7014,2.7042,2.7093,2.7135,2.7146,2.7156,2.719,2.7203,2.705,2.705,2.705,0,2.6557,2.663,2.6631,2.6684,2.671,2.6692,2.6751,2.6774,2.682,2.6838,2.6816,2.6907,2.6928,2.7007,2.7031,2.705,2.7065,2.7038,2.7144,2.7154,2.7163,2.7196,2.7209,2.7053,2.7053,2.7053,2.7052,0,2.6679,2.6729,2.6773,2.6819,2.685,2.6906,2.6913,2.6944,2.6939,2.6948,2.7014,2.7038,2.7082,2.7101,2.7097,2.7179,2.7166,2.7144,2.7104,2.718,2.7211,2.7224,2.7058,2.7057,2.7056,2.7055,0,0,2.6799,2.6844,2.686,2.688,2.6917,2.6955,2.7009,2.7054,2.7079,2.7112,2.7156,2.7219,2.7198,2.7223,2.7221,2.7257,2.7333,2.7231,2.7231,2.7248,2.7423,2.7439,2.7453,2.7323,2.7325,2.7327,2.742,0,2.6894,2.6991,2.6992,2.708,2.7125,2.7108,2.7155,2.7182,2.7191,2.723,2.724,2.7284,2.7255,2.7269,2.7304,2.7316,2.7368,2.7309,2.7362,2.7364,2.7355,2.747,2.7487,2.7574,2.7432,2.7434,2.7436,0,2.7018,2.7055,2.7148,2.7177,2.7196,2.7238,2.7278,2.7316,2.7345,2.7349,2.7376,2.7368,2.7421,2.738,2.7452,2.7412,2.7434,2.7443,2.7446,2.7451,2.7404,2.7476,2.7601,2.7614,2.7455,2.7453,2.7452,0,2.7095,2.7168,2.7232,2.725,2.7286,2.7316,2.7332,2.7359,2.7385,2.7419,2.7435,2.7475,2.7497,2.7527,2.7529,2.7499,2.7601,2.756,2.7605,2.7605,2.7627,2.7626,2.7756,2.7642,2.7642,2.7642,2.7641,0,2.7201,2.7258,2.7267,2.7307,2.737,2.737,2.7431,2.7444,2.7468,2.7509,2.7496,2.7534,2.7534,2.7572,2.7574,2.7633,2.7643,2.7646,2.7646,2.7648,2.7647,2.7661,2.7655,2.7645,2.7644,2.7644,2.7643,0,2.7298,2.7306,2.7375,2.7404,2.7412,2.7457,2.748,2.7517,2.7525,2.7576,2.7588,2.76,2.7644,2.7649,2.7701,2.7701,2.7772,2.7766,2.7763,2.7761,2.7805,2.7801,2.795,2.7968,2.7842,2.7844,2.7845,0,2.7365,2.7408,2.7441,2.7467,2.7485,2.7529,2.7555,2.7556,2.7583,2.7619,2.7651,2.7694,2.7729,2.78,2.7812,2.7851,2.7845,2.7894,2.785,2.785,2.7844,2.7842,2.7845,2.7902,2.7904,2.7905,2.7906,0,2.7482,2.7483,2.7523,2.7563,2.7595,2.7627,2.7657,2.7679,2.7683,2.7714,2.776,2.7787,2.7839,2.7881,2.7919,2.7933,2.792,2.7919,2.7932,2.7933,2.7929,2.7931,2.7785,2.7916,2.7915,2.7914,2.7914,2.7913,2.7565,2.7602,2.7631,2.7675,2.7697,2.7725,2.776,2.7773,2.7811,2.7854,2.7852,2.7901,2.7927,2.7977,2.7994,2.8032,2.8015,2.8033,2.8037,2.8042,2.8046,2.7924,2.8038,2.8038,2.8038,2.8038,2.8038,0,2.7681,2.7698,2.7738,2.778,2.7814,2.7799,2.7831,2.7859,2.7904,2.793,2.7964,2.8015,2.8055,2.8071,2.811,2.8137,2.8131,2.8147,2.8145,2.8148,2.8059,2.8044,2.815,2.815,2.815,2.815,2.815,2.815,2.7745,2.7807,2.7812,2.7884,2.79,2.795,2.7969,2.7993,2.8014,2.8072,2.8106,2.8116,2.8137,2.8177,2.8213,2.8216,2.823,2.8249,2.8249,2.8166,2.8154,2.8143,2.8129,2.8252,2.8252,2.8335,2.8335,2.8336]}]]